Regional Weather Roundup
Issued by NWS Northern Indiana

Home | Current Version | Previous Version | Graphics & Text | Print | Product List | Glossary On
Versions: 1 2 3 4 5 6 7 8 9 10 11 12 13 14 15 16 17 18 19 20 21 22 23 24 25 26 27 28 29 30 31 32 33 34 35 36 37 38 39 40 41 42 43 44 45 46 47 48 49 50
000
ASUS43 KIWX 210900
RWRIWX

KIWX WEATHER ROUNDUP
NATIONAL WEATHER SERVICE NORTHERN INDIANA
500 AM EDT SAT APR 21 2018

NOTE: "FAIR" INDICATES FEW OR NO CLOUDS BELOW 12,000 FEET WITH NO
SIGNIFICANT WEATHER AND/OR OBSTRUCTIONS TO VISIBILITY.

* THESE STATIONS ARE NOT UNDER NWS QUALITY CONTROL. THEY ALSO MAY NOT
  REPORT WEATHER SUCH AS PRECIPITATION OR FOG.

INZ001>027-211000-
NORTHERN INDIANA

CITY           SKY/WX    TMP DP  RH WIND       PRES   REMARKS
KNOX*          FAIR      32  23  69 CALM      30.42F
SOUTH BEND     FAIR      29  19  66 CALM      30.43S
GOSHEN         FAIR      34  26  72 CALM      30.43R
MONTICELLO*    FAIR      40  23  50 CALM      30.41F
ROCHESTER*     FAIR      36  30  80 CALM      30.42F
WARSAW*        FAIR      32  28  86 CALM      30.43S
FORT WAYNE     FAIR      33  26  75 E6        30.44S WCI  28
PERU/GRISSOM   FAIR     N/A N/A N/A E5          N/A

$$
INZ028>050-211000-
CENTRAL INDIANA

CITY           SKY/WX    TMP DP  RH WIND       PRES   REMARKS
LAFAYETTE      FAIR      39  26  59 E5        30.40F
KOKOMO*        FAIR      34  28  79 E3        30.43R
MUNCIE*        FAIR      36  27  69 CALM      30.42R
INDIANAPOLIS   FAIR      44  24  45 E8        30.40S

$$
MIZ043>046-050>051-056>058-064>065-071>073-077>080-211000-
SOUTHWEST LOWER MICHIGAN

CITY           SKY/WX    TMP DP  RH WIND       PRES   REMARKS
BATTLE CREEK   FAIR      35  26  69 CALM      30.44S
BENTON HARBOR  FAIR      29  23  78 CALM      30.43S
COLDWATER*     FAIR      38  25  60 SE6       30.44S
HILLSDALE*     FAIR      36  21  55 S6        30.43S
HOLLAND        FAIR      31  22  69 CALM      30.44F
GRAND RAPIDS   FAIR      32  23  69 E3        30.43S
KALAMAZOO      FAIR      33  24  69 CALM      30.44S
THREE RIVERS*  FAIR      33  28  81 CALM      30.44S

$$
OHZ001>008-015>018-024>025-211000-
NORTHWEST OHIO

CITY           SKY/WX    TMP DP  RH WIND       PRES   REMARKS
WAUSEON*       FAIR      34  28  80 NE3       30.46R
DEFIANCE       FAIR      33  26  75 CALM      30.45S
FINDLAY        FAIR      36  23  59 CALM      30.44S
TOLEDO EXPRESS FAIR      33  26  75 CALM      30.46S
TOLEDO METCALF FAIR      34  25  69 CALM      30.47S
LIMA           FAIR      35  23  61 SE7       30.43F WCI  29

$$
AND FOR LAKE MICHIGAN COASTAL AND OPEN LAKE BUOY OBSERVATIONS

STATION/POSITION TEMP    WIND        PRES    VSBY  WAVE
                 AIR SEA DIR/SP/G                  HT/PER
                 (F)     (DEG/KT/KT) (MB)    (MI)  (FT/S)
CALUMET HARBOR    37      10/  3/  3 1029.9R
MICHIGAN CITY     41      60/  5/  5   N/A
BURNS HARBOR      43      90/  6/  8 1030.8S
SAINT JOSEPH      39      90/  2/  3 1030.8

$$
&&




USA.gov is the U.S. government's official web portal to all federal, state and local government web resources and services.